Location: Napier
(39.4830°S, 176.9170°E)
Time: 08:51:21
(UTC+13:00)

Cosmos 1655 Rocket - Pass Details

Date: 24 January 2019
Orbit: 971 x 1005 km, 83.0° (Epoch: 15 October)

Event Time Altitude Azimuth Distance (km) Brightness Sun altitude
Rises 20:57:56 0° 351° (N) 3,700 6.8 -4.6°
Reaches altitude 10° 21:00:27 10° 350° (N) 2,754 6.2 -5.0°
Maximum altitude 21:06:47 78° 263° (W) 1,019 4.3 -6.1°
Drops below altitude 10° 21:13:09 10° 176° (S) 2,764 6.8 -7.1°
Sets 21:15:41 0° 174° (S) 3,714 7.4 -7.5°
